Regional Weather Roundup
Issued by NWS Midland/Odessa, TX

Home | Current Version | Previous Version | Text Only | Print | Product List | Glossary On
Versions: 1 2 3 4 5 6 7 8 9 10 11 12 13 14 15 16 17 18 19 20 21 22 23 24 25 26 27 28 29 30 31 32 33 34 35 36 37 38 39 40 41 42 43 44 45 46 47 48 49 50
000
ASUS44 KMAF 041110
RWRMAF
MIDLAND AREA WEATHER ROUNDUP
NATIONAL WEATHER SERVICE MIDLAND TX
600 AM CDT FRI SEP 04 2015

...IN SOUTHWEST TEXAS AND SOUTHEAST NEW MEXICO...

CITY           SKY/WX    TMP DP  RH WIND       PRES   REMARKS
ALPINE         CLEAR     61  51  69 SW6       30.08R
ANDREWS        FAIR      67  53  59 S3        29.96S
ARTESIA        CLEAR     70  50  49 N5        29.95S
BIG SPRING     CLEAR     72  56  57 SE12      29.97R
CARLSBAD       CLEAR     72  49  44 S8        29.91F
DRYDEN           N/A     75  65  70 VRB6      29.90R
FORT STOCKTON  CLEAR     72  56  57 S10       29.93R
GUAD PASS      CLEAR     73  46  38 CALM      30.09S
HOBBS            N/A     64  52  63 CALM      29.98S
MARFA          CLEAR     55  46  71 N7        30.06S
MIDLAND AIRPK  CLEAR     72  55  53 SE3       29.95S
MIDLAND INTL   CLEAR     70  54  56 SE7       29.94S
ODESSA         CLEAR     72  53  51 S6        29.95S
PECOS          CLEAR     67  51  55 E7        29.89F
PRESIDIO       FAIR      78  55  44 N9        29.90S
SEMINOLE       CLEAR     65  51  60 CALM      29.97F
SNYDER         CLEAR     71  61  69 S10       29.95R
WINK           CLEAR     69  53  56 E6        29.91S
$$
...OTHER STATIONS IN TEXAS...

CITY           SKY/WX    TMP DP  RH WIND       PRES   REMARKS
ABILENE        CLEAR     74  65  73 S9        29.94R
AMARILLO       MOCLDY    72  55  55 S15       29.97S
AUSTIN         CLOUDY    75  73  93 CALM      29.92S
BROWNSVILLE    CLEAR     78  76  93 SE5       29.86F
CORPUS CHRISTI PTCLDY    76  74  93 SE5       29.88R
DALLAS FTW     PTCLDY    79  69  71 S9        29.91S
DEL RIO        PTCLDY    78  69  73 E12       29.87S
EL PASO        CLOUDY    76  56  49 E6        29.97R
HOUSTON INT    PTCLDY    75  74  96 CALM      29.92S
LUBBOCK        PTCLDY    66  57  72 SE6       29.96S
SAN ANGELO     CLEAR     73  64  73 SW5       29.92S
SAN ANTONIO    CLOUDY    79  74  84 S7        29.93R
WACO           PTCLDY    77  71  82 SE6       29.92S
WICHITA FALLS  NOT AVBL
$$
...OTHER LOCATIONS IN NEW MEXICO...

CITY           SKY/WX    TMP DP  RH WIND       PRES   REMARKS
ALAMAGORDO     MOCLDY    68  50  52 CALM      30.00S
ALBUQUERQUE    MOCLDY    67  49  52 S8        30.08R
CANNON AFB     PTCLDY    69  52  54 SW5       30.00F
CLOVIS         PTCLDY    66  48  52 W3        30.01F
HOLLOMAN AFB   CLOUDY    72  53  52 SE3       29.97F
ROSWELL        MOCLDY    71  48  43 S5        29.95S
RUIDOSO        MOCLDY    63  46  55 W9        30.19S
SANTA FE       CLOUDY    61  44  53 NE3       30.13R
TRUTH OR CONSE CLOUDY    67  56  67 W8        30.03S
TUCUMCARI      CLEAR     69  49  48 SW10      29.96S
$$



USA.gov is the U.S. government's official web portal to all federal, state and local government web resources and services.